#timestamp,LO_Frequency,Hit,StdDev 
1622491215.2,286022557.9,N
1622491235.0,286022558.3,N
1622491235.9,286022558.3,Y
1622491255.8,286047003.6,P
1622491275.6,286047003.2,N
1622491295.4,286047002.9,N
1622491315.3,286047003.5,N
1622491335.1,286047003.1,N
1622491355.9,286047003.1,N
1622491375.7,286047005.7,N
1622491395.5,286047002.9,N
1622491415.4,286047005.8,N
1622491435.2,286047004.6,N
1622491455.0,286047007.5,N
1622491456.0,286047007.5,N
1622491475.8,286047007.5,N
1622491495.6,286047005.0,N
1622491515.5,286047007.6,N
1622491535.3,286047007.4,N
1622491555.1,286047006.9,N
1622491575.9,286047006.3,N
1622491595.7,286047006.5,N
1622491615.6,286047008.9,N
1622491635.4,286047007.9,N
1622491655.2,286047009.0,N
1622491675.1,286047008.4,N
1622491676.0,286047008.4,N
1622491695.8,286047006.2,N
1622491715.6,286047006.5,N
1622491735.5,286047009.1,N
1622491755.3,286047008.5,N
1622491775.2,286047008.8,N
1622491795.9,286047009.1,N
1622491815.7,286047009.0,Y
1622491835.6,286047002.5,P
1622491855.4,286047001.3,N
1622491875.2,286047002.1,N
1622491895.1,286047002.5,N
1622491896.0,286047002.5,N
1622491915.8,286047004.4,N
1622491935.7,286047002.6,N
1622491955.5,286047001.8,N
1622491975.3,286047001.6,N
1622491995.2,286047004.4,Y
1622492015.0,286047000.8,P
1622492015.9,286047000.8,N
1622492035.8,286046999.9,N
1622492055.6,286047000.7,N
1622492075.4,286047000.4,N
1622492095.3,286047000.2,N
1622492115.1,286047000.2,N
1622492135.8,286047002.4,N
1622492155.7,286047000.5,N
1622492175.5,286047000.3,N
1622492195.4,286047000.2,N
1622492215.2,286047002.5,N
1622492235.0,286047002.0,N
1622492235.9,286047002.0,N
1622492255.8,286047003.3,Y
1622492275.6,286047011.9,P
1622492295.4,286047001.7,N
1622492315.3,286047002.1,N
1622492335.1,286047002.0,N
1622492355.9,286047001.3,N
1622492375.7,286047004.3,N
1622492395.5,286047004.3,N
1622492415.4,286047003.3,N
1622492435.2,286047005.8,N
1622492455.0,286047005.6,N
1622492456.0,286047005.6,N
1622492475.8,286047002.9,N
1622492495.6,286047005.9,N
1622492515.5,286047005.0,N
1622492535.3,286047004.7,N
1622492555.1,286047007.1,N
1622492575.9,286047006.5,N
1622492595.7,286047006.6,N
1622492615.6,286047008.9,Y
1622492635.4,286047001.6,P
1622492655.2,286046999.8,N
1622492675.1,286047003.9,N
1622492676.0,286047003.9,N
1622492695.8,286047004.1,N
1622492715.7,286047003.7,N
1622492735.5,286047003.6,N
1622492755.3,286047003.0,N
1622492775.2,286047003.1,N
1622492795.0,286047005.7,Y
1622492795.9,286047005.7,P
1622492815.8,286047002.7,N
1622492835.6,286047001.6,N
1622492855.4,286047002.5,N
1622492875.3,286047002.8,N
1622492895.1,286047002.5,N
1622492915.8,286047002.7,N
1622492935.7,286047002.5,N
1622492955.5,286047002.3,N
1622492975.4,286047003.6,Y
1622492995.2,286047002.7,P
1622493015.0,286047002.2,P
1622493015.9,286047002.2,P
1622493035.8,286047004.3,Y
1622493055.6,286047000.4,P
1622493075.5,286047002.6,N
1622493095.3,286047001.6,N
1622493115.1,286047002.8,Y
1622493135.9,286047000.0,P
1622493155.7,286047000.2,N
1622493175.6,286047001.1,N
1622493195.4,286047000.6,N
1622493215.2,286047000.4,N
1622493235.1,286046998.1,Y
1622493236.0,286046998.1,P
1622493255.8,286047001.1,N
1622493275.7,286047000.3,N
1622493295.5,286047001.2,N
1622493315.3,286047000.8,N
1622493335.2,286047000.4,N
1622493355.0,286047002.8,N
1622493355.9,286047002.8,N
1622493375.8,286047000.2,N
1622493395.6,286047000.1,N
1622493415.4,286047002.3,N
1622493435.3,286047001.5,N
1622493455.1,286047002.4,N
1622493475.8,286047002.2,N
1622493495.7,286047001.6,N
1622493515.5,286047004.1,Y
1622493535.4,286047002.0,P
1622493555.2,286047002.1,P
1622493575.0,286047004.2,P
1622493575.9,286047004.2,Y
1622493595.8,286046999.8,P
1622493615.6,286047002.0,N
1622493635.5,286047002.8,N
1622493655.3,286047002.1,N
1622493675.1,286047002.2,N
1622493695.9,286047001.8,N
1622493715.7,286047002.0,N
1622493735.5,286047003.6,Y
1622493755.4,286047002.4,P
1622493775.2,286047002.3,P
1622493795.1,286047001.4,P
1622493796.0,286047001.4,Y
1622493815.8,286047000.4,P
1622493835.6,286046999.9,N
1622493855.5,286046999.8,N
1622493875.3,286047000.3,N
1622493895.2,286047002.4,N
1622493915.9,286047002.6,N
1622493935.7,286047001.3,N
1622493955.6,286047001.8,N
1622493975.4,286047001.4,N
1622493995.2,286047004.0,Y
1622494015.1,286047002.7,P
1622494016.0,286047002.7,P
1622494035.8,286047002.0,N
1622494055.7,286047002.1,Y
1622494075.5,286047000.5,P
1622494095.3,286047001.0,N
1622494115.2,286047000.7,N
1622494135.0,286046999.9,N
1622494135.9,286046999.9,N
1622494155.8,286046999.7,N
1622494175.6,286046999.9,N
1622494195.4,286047000.1,N
1622494215.3,286047002.3,Y
1622494235.1,286046999.9,P
1622494255.9,286047001.5,P
1622494275.7,286047002.3,P
1622494295.5,286047002.7,N
1622494315.4,286047001.5,N
1622494335.2,286047004.0,Y
1622494355.0,286047002.7,P
1622494355.9,286047002.7,P
1622494375.8,286046999.8,N
1622494395.6,286046999.8,N
1622494415.5,286047001.7,N
1622494435.3,286047001.5,N
1622494455.1,286047003.9,Y
1622494475.9,286047002.1,P
1622494495.7,286047000.1,N
1622494515.5,286047001.8,N
1622494535.4,286047001.4,N
1622494555.2,286047003.9,Y
1622494575.1,286047001.8,P
1622494576.0,286047001.8,P
1622494595.8,286047001.7,P
1622494615.6,286047002.1,Y
1622494635.5,286047001.2,P
1622494655.3,286047000.5,N
1622494675.2,286047000.7,N
1622494695.9,286047000.8,N
1622494715.7,286047000.1,N
1622494735.6,286046999.8,N
1622494755.4,286047002.6,Y
1622494775.2,286046999.8,P
1622494795.1,286047001.9,P
1622494796.0,286047001.9,N
